Location: Newark
(42.5998°N, 13.2232°E)
Time: 19:17:40
(UTC+00:00)

SEEDS - Visible Passes

Search period start: 10 April 2020 00:00
Search period end: 20 April 2020 00:00
Orbit: 586 x 603 km, 97.5° (Epoch: 09 April)

Date Brightness Start Highest point End Pass type
(mag) Time Alt. Az. Time Alt. Az. Time Alt. Az.
16 Apr ? 03:32:06 10° ENE 03:34:00 13° E 03:35:55 10° ESE visible
17 Apr ? 03:40:54 10° NE 03:43:35 16° E 03:46:15 10° SE visible
18 Apr ? 03:49:56 10° NE 03:53:08 20° E 03:56:19 10° SE visible
